Flag for U.S.A. Weather past 2 weeks in Oklahoma City, Oklahoma, U.S.A.

Now
42 °F

Light rain. Fog.


Feels Like: 37 °F
Forecast: 26 / 47 °F
Wind: 9 mph from South

Location: Will Rogers World Airport

Current Time: Jan 31, 2015 at 7:21:31 PM

Latest Report: Jan 31, 2015 at 6:52 PM


Visibility: 5 mi

Pressure: 29.93 "Hg

Humidity: 89%

Dew point: 39 °F

Location of Oklahoma CityLocation

Historic Weather in Oklahoma City — Graph

°F

Oklahoma City temperature yesterday

Maximum temperature yesterday: 48 °F (at 2:52 PM)
Minimum temperature yesterday: 35 °F (at 4:52 AM)
Average temperature yesterday: 42 °F

Past Weeks' High & Low Weather Summary

 TemperatureHumidityPressure
High79 °F (Jan 28, 3:52 PM)89% (Jan 22, 4:52 AM)30.54 "Hg (Jan 22, 4:52 AM)
Low28 °F (Jan 26, 6:52 AM)9% (Jan 19, 3:52 PM)29.83 "Hg (Jan 17, 5:52 AM)
Average48 °F52%30.13 "Hg
* Reported Jan 16 5:52 PM — Jan 31 5:52 PM, Oklahoma City, Weather by CustomWeather, © 2014

Note: Actual official high and low records may vary slightly from our data, if they occured in-between our weather recording intervals... More about our weather records

Advertising

Oklahoma City weather history for previous 24 hours

 ConditionsComfort  
Time TempWeatherWind HumidityBarometerVisibility
5:52 PM
Jan 31
42 °FLight rain. Fog.9 mph89%29.95 "Hg5 mi
4:52 PM42 °FLight rain. Fog.7 mph89%29.96 "Hg4 mi
3:52 PM42 °FLight rain. Fog.10 mph89%29.98 "Hg5 mi
2:52 PM42 °FLight rain. Fog.14 mph85%29.97 "Hg5 mi
1:52 PM42 °FLight rain. Fog.16 mph85%30.00 "Hg5 mi
12:52 PM43 °FLight rain. More clouds than sun.17 mph79%30.06 "Hg6 mi
11:52 AM41 °FLight rain. Overcast.17 mph82%30.13 "Hg7 mi
10:52 AM41 °FLight rain. Overcast.14 mph82%30.17 "Hg7 mi
9:52 AM42 °FLight rain. Cloudy.12 mph76%30.16 "Hg5 mi
8:52 AM42 °FLight rain. Mostly cloudy.12 mph76%30.17 "Hg10 mi
7:52 AM42 °FLight rain. More clouds than sun.13 mph73%30.17 "Hg10 mi
6:52 AM42 °FLight rain. Overcast.9 mph73%30.18 "Hg10 mi
5:52 AM43 °FLight rain. Mostly cloudy.10 mph68%30.19 "Hg10 mi
4:52 AM45 °FOvercast.12 mph51%30.19 "Hg10 mi
3:52 AM42 °FOvercast.7 mph60%30.22 "Hg10 mi
2:52 AM43 °FPassing clouds.5 mph56%30.23 "Hg10 mi
1:52 AM44 °FMostly cloudy.10 mph51%30.22 "Hg10 mi
12:52 AM44 °FOvercast.10 mph49%30.25 "Hg10 mi
11:52 PM
Jan 30
44 °FOvercast.10 mph49%30.28 "Hg10 mi
10:52 PM44 °FOvercast.7 mph47%30.31 "Hg10 mi
9:52 PM44 °FOvercast.7 mph45%30.33 "Hg10 mi
8:52 PM44 °FOvercast.10 mph45%30.34 "Hg10 mi
7:52 PM44 °FMostly cloudy.7 mph45%30.37 "Hg10 mi
Weather by CustomWeather, © 2014

See weather overviewHow to use our weather pages